Simultaneous Nadir Overpasses (SNOs) Predictions

Prediction of SNOs between AQUA and NPP Satellite Orbit:

Table of predicted SNOs for the next 14.0 days since TLE Epoch: 8/5/2023
Index Date (AQUA) Time (AQUA) Lat,Lon (AQUA) SZA (AQUA ) Date (NPP) Time (NPP) Lat,Lon (NPP) SZA (NPP ) Distance(km) Time Diff (sec)
1 08/06/2023 22:13:35 80.65, 116.25 73.96 08/06/2023 22:12:28 80.65, 116.15 74.02 1.75 67
2 08/06/2023 23:02:56 -80.76, -74.75 106.26 08/06/2023 23:03:08 -80.76, -74.75 106.27 0.21 12
3 08/09/2023 12:48:17 80.71,-101.73 74.56 08/09/2023 12:47:50 80.71,-101.81 74.59 1.47 27
4 08/09/2023 13:37:39 -80.79, 66.96 105.61 08/09/2023 13:38:31 -80.80, 66.98 105.65 0.54 52
5 08/12/2023 02:33:36 -80.72,-127.84 104.76 08/12/2023 02:32:29 -80.73,-127.66 104.74 3.18 67
6 08/12/2023 03:22:57 80.76, 40.28 75.18 08/12/2023 03:23:11 80.76, 40.18 75.19 1.87 14
7 08/14/2023 17:08:16 -80.75, 13.85 104.05 08/14/2023 17:07:51 -80.76, 13.96 104.05 2.09 25
8 08/14/2023 17:57:37 80.81,-177.70 75.84 08/14/2023 17:58:33 80.81,-177.87 75.82 2.99 56
9 08/17/2023 06:53:33 80.72, -12.87 76.80 08/17/2023 06:52:32 80.71, -12.98 76.86 2.17 61



Historial Predications of SNOs between AQUA and NPP
